Location: Gälforsberget
(66.6500°N, 22.4167°E)
Time: 01:12:24
(UTC+00:00)

SJ 16-02 - Pass Details

Date: 11 April 2026
Orbit: 582 x 592 km, 75.0° (Epoch: 20 May)

Event Time Altitude Azimuth Distance (km) Brightness Sun altitude
Rises 23:27:37 0° 322° (NW) 2,837 5.3 -14.0°
Reaches altitude 10° 23:30:16 10° 306° (NW) 1,930 4.2 -14.0°
Maximum altitude 23:33:27 21° 258° (WSW) 1,356 2.8 -13.9°
Enters shadow 23:34:56 18° 231° (SW) 1,492 2.8 -13.9°
